Dunkirk, NY

2:50 PM EDT on July 20, 2017 (GMT -0400)
Chautauqua County-Dunkirk

Weather History for KDKK - October, 2012

Change the Weather History Date:

Tuesday, October 30, 2012

  Actual Average Record
Temperature  
Mean Temperature 48 °F -  
Max Temperature 54 °F 56 °F 77 °F (1946)
Min Temperature 42 °F 37 °F 25 °F (2002)
Degree Days  
Heating Degree Days 17    
Moisture  
Dew Point 43 °F    
Average Humidity 81    
Maximum Humidity 94    
Minimum Humidity 59    
Precipitation  
Precipitation 0.24 in - - ()
Sea Level Pressure  
Sea Level Pressure 29.18 in    
Wind  
Wind Speed 19 mph (ENE)    
Max Wind Speed 29 mph    
Max Gust Speed 40 mph    
Visibility 8 miles    
Events Rain    
Averages and records for this station are not official NWS values.
T = Trace of Precipitation, MM = Missing Value Source: NWS Daily Summary

Daily Weather History Graph

Daily Weather History Graph

Search for Another Location

Airport or City:

Trip Planner

Search our weather history database for the weather conditions in past years. The results will help you decide how hot, cold, wet, or windy it might be!

Date:

Astronomy

Oct. 30, 2012 Rise Set
Actual Time 7:48 AM EDT 6:12 PM EDT
Civil Twilight 7:19 AM EDT 6:41 PM EDT
Nautical Twilight 6:46 AM EDT 7:14 PM EDT
Astronomical Twilight 6:13 AM EDT 7:47 PM EDT
Moon 6:38 PM EDT (10/30) 8:35 AM EDT (10/30)
Length of Visible Light 11h 21m
Length of Day
10h 23m
Full, 99% of the Moon is Illuminated
Oct 30
Full
Nov 6
Last Quarter
Nov 13
New
Nov 20
First Quarter
Nov 28
Full

Hourly Weather History & Observations

Time (EDT) Temp. Windchill Dew Point Humidity Pressure Visibility Wind Dir Wind Speed Gust Speed Precip Events Conditions
12:17 AM 44.6 °F 35.9 °F 42.8 °F 93% 29.22 in 4.0 mi North 23.0 mph 40.3 mph N/A   Overcast
12:36 AM 44.6 °F 35.1 °F 42.8 °F 93% 29.20 in 7.0 mi North 27.6 mph 40.3 mph 0.00 in Rain Light Rain
12:53 AM 45.0 °F 36.2 °F 43.0 °F 93% 29.20 in 5.0 mi North 24.2 mph 40.3 mph 0.00 in   Overcast
1:53 AM 46.9 °F - 44.1 °F 90% 29.14 in 4.0 mi North 26.5 mph 38.0 mph 0.01 in Rain Light Rain
2:46 AM 48.2 °F - 46.4 °F 93% 29.09 in 4.0 mi North 28.8 mph 39.1 mph 0.01 in Rain Light Rain
2:53 AM 48.0 °F - 46.0 °F 93% 29.09 in 3.0 mi North 27.6 mph 39.1 mph 0.01 in Rain Light Rain
3:53 AM 48.9 °F - 46.9 °F 93% 29.05 in 5.0 mi North 26.5 mph 40.3 mph 0.01 in Rain Light Rain
4:35 AM 50.0 °F - 48.2 °F 94% 29.04 in 1.8 mi NNE 23.0 mph 35.7 mph 0.12 in Rain Heavy Rain
4:46 AM 50.0 °F - 48.2 °F 94% 29.04 in 3.0 mi NNE 17.3 mph 23.0 mph 0.16 in Rain Light Rain
4:53 AM 51.1 °F - 48.9 °F 92% 29.04 in 7.0 mi North 25.3 mph 36.8 mph 0.16 in Rain Light Rain
5:53 AM 53.1 °F - 51.1 °F 93% 29.03 in 10.0 mi NNE 13.8 mph 25.3 mph 0.00 in   Overcast
6:03 AM 53.6 °F - 51.8 °F 94% 29.03 in 10.0 mi NE 15.0 mph - N/A   Overcast
7:53 AM 53.1 °F - 46.0 °F 77% 29.10 in 10.0 mi ENE 15.0 mph 23.0 mph 0.03 in   Overcast
8:53 AM 53.1 °F - 44.1 °F 71% 29.13 in 10.0 mi ENE 10.4 mph - N/A   Scattered Clouds
9:53 AM 52.0 °F - 46.0 °F 80% 29.14 in 10.0 mi ENE 8.1 mph - 0.00 in   Overcast
10:53 AM 53.1 °F - 42.1 °F 66% 29.17 in 10.0 mi East 12.7 mph 21.9 mph N/A   Overcast
11:53 AM 52.0 °F - 42.1 °F 69% 29.19 in 10.0 mi East 8.1 mph 23.0 mph 0.00 in   Overcast
12:53 PM 52.0 °F - 41.0 °F 66% 29.20 in 10.0 mi East 11.5 mph - N/A   Overcast
1:53 PM 53.1 °F - 39.0 °F 59% 29.20 in 10.0 mi ESE 13.8 mph - N/A   Mostly Cloudy
2:53 PM 53.1 °F - 39.0 °F 59% 29.22 in 10.0 mi East 11.5 mph - N/A   Scattered Clouds
3:53 PM 50.0 °F - 41.0 °F 71% 29.24 in 10.0 mi East 13.8 mph - 0.00 in Rain Light Rain
4:53 PM 48.0 °F - 42.1 °F 80% 29.26 in 10.0 mi SSE 3.5 mph - 0.02 in   Overcast
5:53 PM 46.9 °F - 39.9 °F 77% 29.29 in 10.0 mi ESE 5.8 mph - 0.00 in   Overcast
6:53 PM 46.0 °F 44.8 °F 39.0 °F 76% 29.32 in 10.0 mi ESE 3.5 mph - N/A   Overcast
8:53 PM 44.1 °F - 37.9 °F 79% 29.36 in 10.0 mi Calm Calm - 0.00 in Rain Light Rain
9:53 PM 44.1 °F 41.5 °F 37.9 °F 79% 29.38 in 10.0 mi ESE 4.6 mph - 0.00 in   Overcast
10:53 PM 43.0 °F 40.3 °F 36.0 °F 76% 29.38 in 10.0 mi ESE 4.6 mph - N/A   Mostly Cloudy
11:53 PM 42.1 °F 38.4 °F 35.1 °F 76% 29.38 in 10.0 mi SE 5.8 mph - N/A   Mostly Cloudy